Location: Leeds
(37.2390°N, 113.3580°W)
Time: 08:11:45
(UTC-06:00)

Daily predictions for brighter satellites

Satellite Brightness Start Highest point End
(mag) Time Altitude Azimuth Time Altitude Azimuth Time Altitude Azimuth
Cosmos 2237 Rocket 4.1 21:11:43 10° SW 21:16:51 37° WNW 21:22:03 10° N
Cosmos 1726 Rocket 3.6 21:17:26 10° N 21:21:54 80° E 21:26:17 10° S
Cosmos 1461 4.1 21:18:45 10° N 21:22:32 30° NE 21:26:10 10° ESE
Cosmos 2278 Rocket 3.4 21:21:45 10° NW 21:27:04 42° WSW 21:32:22 10° S
Tsikada Rocket 4.5 21:29:52 10° SSE 21:35:50 43° E 21:41:48 10° NNE
ATLAS 3B R/B 3.9 21:30:01 10° SSE 21:35:52 24° ESE 21:41:41 10° ENE
CZ-2D R/B 4.5 21:32:13 10° S 21:35:56 43° W 21:39:41 10° NNW
Abrixas rocket 2.4 21:33:00 10° NW 21:36:26 73° NE 21:39:14 14° ESE
Cosmos 1666 3.0 21:33:27 10° N 21:37:16 52° E 21:41:00 10° SSE
Cosmos 2058 Rocket 3.1 21:34:06 10° N 21:38:30 88° WSW 21:42:50 10° S
Cosmos 2369 Rocket 4.1 21:35:58 10° NNE 21:39:27 16° NE 21:42:55 10° E
Cosmos 1602 Rocket 3.9 21:35:32 10° SSE 21:39:49 47° E 21:44:07 10° NNE
ERS-1 Rocket 3.0 21:37:54 10° SSE 21:42:56 82° ENE 21:47:57 10° N
APEX 3.8 21:38:43 10° NNW 21:42:57 72° ENE 21:47:58 12° SSE
SL-16 R/B 3.3 21:39:57 10° SW 21:45:23 48° WNW 21:50:53 10° N
ISS -3.2 21:43:16 10° SSW 21:46:26 51° SE 21:49:37 10° ENE
Atlas Centaur 2 3.3 21:40:13 10° SW 21:47:04 45° SSE 21:54:57 10° E
Cosmos 2285 Rocket 4.1 21:41:59 10° NNW 21:48:19 81° WSW 21:54:40 10° SSE
Meteor 1-15 Rocket 4.2 21:44:05 10° N 21:49:43 81° E 21:55:23 10° S
Envisat 3.4 21:45:43 13° SE 21:50:00 49° ENE 21:54:53 10° N
PSLV R/B 3.5 21:47:43 10° WSW 21:51:14 77° NNW 21:54:48 10° ENE
Cosmos 1812 Rocket 4.3 21:48:35 10° N 21:52:40 36° ENE 21:55:23 18° SE
Cosmos 1743 4.4 21:50:12 10° NNW 21:53:39 32° W 21:57:04 10° SSW
deb Chang Zheng 4 3.8 21:50:02 10° N 21:54:25 75° WNW 21:58:46 10° SSW
USA 234 4.3 21:48:50 10° E 21:54:43 37° NNE 22:00:38 10° NNW
GRACE-1 4.4 21:52:19 10° NNE 21:55:03 40° E 21:56:21 24° SE
GRACE-2 4.4 21:52:45 10° NNE 21:55:29 40° E 21:56:46 24° SE
Cosmos 1939 Rocket 2.9 21:52:34 14° SSE 21:56:05 69° ENE 22:00:13 10° N
Cosmos 1464 Rocket 4.1 21:50:33 10° N 21:56:41 80° W 22:02:51 10° S
ATLAS CENTAUR Rocket 4.3 21:57:11 10° WSW 22:03:34 53° SSE 22:49:30 10° E
ATLAS CENTAUR Rocket 4.3 21:57:11 10° WSW 22:03:35 53° SSE 22:49:30 10° E
ATLAS CENTAUR Rocket 4.3 21:57:12 10° WSW 22:03:35 53° SSE 22:49:30 10° E
H-2A R/B 2.3 21:59:32 11° S 22:03:38 68° WSW 22:07:58 10° NNW
Cosmos 1515 4.4 22:03:51 23° SE 22:05:35 35° E 22:09:08 10° NNE
CZ-4 SHROUD 3.3 22:04:33 27° SSE 22:06:04 60° ENE 22:09:11 10° N
SPOT 5 2.7 22:04:13 20° SSE 22:07:08 60° ENE 22:11:24 10° N
ALOS 4.2 22:04:10 10° SSW 22:08:07 27° W 22:12:05 10° NW
Cosmos 1626 Rocket 3.8 22:07:57 10° SSW 22:12:23 72° W 22:16:48 10° N
COSMOS 2455 2.8 22:06:27 10° SSW 22:12:26 77° ESE 22:18:27 10° NNE
Cosmos 1603 3.9 22:08:49 10° SSW 22:14:25 73° WNW 22:20:02 10° NNE
YAOGAN 6 3.5 22:14:15 27° ESE 22:15:23 34° ENE 22:18:48 10° N
Cosmos 2034 Rocket 4.2 22:09:40 10° N 22:16:02 76° W 22:22:13 10° S
Cosmos 2228 4.2 22:17:12 10° NNW 22:21:22 42° W 22:25:31 10° SSW
Terra 3.7 22:22:47 14° E 22:24:08 16° ENE 22:26:54 10° NNE
Cosmos 1346 Rocket 3.7 22:24:23 29° E 22:24:33 29° E 22:27:58 10° NNE
BREEZE-M DEB (TANK) 3.8 22:23:48 10° WSW 22:28:01 38° NW 22:30:09 10° NE
Cosmos 1992 Rocket 4.3 22:23:20 10° N 22:28:27 52° ENE 22:30:40 31° SE
PSLV R/B 3.5 22:27:45 35° SSW 22:28:50 60° W 22:31:54 10° NNW
Meteor 2-12 Rocket 4.4 22:23:47 10° N 22:29:54 76° E 22:33:37 25° SSE
Cosmos 1953 Rocket 4.1 22:29:44 34° ESE 22:30:39 38° E 22:34:46 10° NNE
Cosmos 1943 3.1 22:32:15 10° SSW 22:37:47 71° ESE 22:43:28 10° NNE
Lacrosse 4 Rocket 1.5 22:39:17 45° ESE 22:39:20 45° ESE 22:43:14 10° NE
H-2A R/B 3.3 22:38:18 22° E 22:39:34 25° ENE 22:43:36 10° NNE
MetOp-A 4.1 22:37:01 27° S 22:40:03 83° WSW 22:45:26 10° NNW
Cosmos 1943 Rocket 3.8 22:40:12 10° N 22:44:21 21° NE 22:46:20 17° E
Cosmos 2346 Rocket 4.4 22:40:31 23° S 22:44:32 76° E 22:50:41 10° N
Geosat 4.2 22:40:36 10° NE 22:45:28 48° ESE 22:46:45 39° SSE
SeaSat 1 2.6 22:44:08 32° S 22:46:21 67° WSW 22:51:17 10° NNW
Cosmos 1190 Rocket 3.9 22:43:21 25° S 22:46:29 72° ESE 22:51:48 10° NNE
SPOT 1/Viking Rocket 3.4 22:45:58 36° SSE 22:48:07 83° ENE 22:53:18 10° NNW
CZ-4B R/B 4.0 22:52:40 10° N 22:57:41 60° WNW 23:02:04 14° SSW
DELTA 2 DEB (DPAF) 4.2 23:00:45 56° ESE 23:01:25 64° ENE 23:05:52 10° N
Cosmos 1766 3.9 22:58:24 10° N 23:01:58 42° ENE 23:01:58 42° ENE
Cosmos 676 Rocket 4.0 23:02:01 48° SSE 23:03:08 59° ESE 23:08:23 10° NNE
Cosmos 1758 Rocket 3.4 23:04:11 66° SSE 23:04:44 78° E 23:09:06 10° N
DMSP B5D2-2 4.5 23:01:56 10° NNE 23:06:58 43° E 23:07:08 43° ESE
CARTOSAT-1 4.1 23:08:33 43° ENE 23:08:35 43° ENE 23:12:41 10° N
ARGOS 3.3 23:14:47 43° S 23:16:29 68° WSW 23:21:55 10° NNW
CZ-4C R/B 3.5 23:22:05 72° WSW 23:22:12 72° WSW 23:26:20 10° NNW
ISS -0.4 23:20:39 10° WNW 23:23:05 19° NNW 23:25:31 10° NNE
Cosmos 2369 Rocket 2.2 23:18:25 10° NNW 23:24:04 71° WSW 23:25:15 54° S
ATLAS 3B R/B 3.2 23:18:22 10° SW 23:26:03 69° NW 23:33:36 10° NNE
Cosmos 407 Rocket 4.2 23:31:34 26° SW 23:34:19 52° WNW 23:39:26 10° N
Atlas Centaur 2 3.1 23:28:48 10° WSW 23:36:31 54° S 23:38:00 48° SSE
USA 234 3.3 23:35:50 51° S 23:37:25 67° SW 23:43:58 10° NW
Spot 2 4.3 23:32:54 10° NNE 23:37:45 88° WNW 23:38:03 79° SSW
Cosmos 1092 Rocket 4.3 23:42:22 47° E 23:42:39 47° E 23:48:39 10° NNE
Cosmos 1953 3.2 23:39:30 10° N 23:42:23 45° NNE 23:42:23 45° NNE
Landsat 7 4.3 23:45:23 51° WSW 23:45:35 51° W 23:50:15 10° NNW
Spot 4 3.8 23:48:23 81° NNW 23:48:23 81° NNW 23:52:57 10° NNW
Cosmos 2263 4.3 23:44:53 10° NNW 23:50:24 59° WSW 23:50:53 57° SW
COSMOS 2406 3.1 23:51:29 73° E 23:51:29 73° E 23:57:06 10° NNE
Cosmos 1954 Rocket 4.4 23:52:49 51° WSW 23:53:51 61° WNW 23:59:06 10° N
Cosmos 2208 Rocket 4.5 23:49:07 10° N 23:53:55 49° ENE 23:53:55 49° ENE
